Flag for Canada Weather past 2 weeks in Rainy River, Ontario, Canada

Now
74 °F

Sunny.


Feels Like: 77 °F
Forecast: 55 / 79 °F
Wind: 3 mph from Northwest

Location: Baudette International Airport

Current Time: Aug 1, 2014 at 8:10:12 PM

Latest Report: Aug 1, 2014 at 6:53 PM


Visibility: 10 mi

Pressure: 30.09 "Hg

Humidity: 46%

Dew point: 52 °F

Location of Rainy RiverLocation

Historic Weather in Rainy River — Graph

°F

Rainy River temperature yesterday

Maximum temperature yesterday: 78 °F (at 1:53 PM)
Minimum temperature yesterday: 58 °F (at 5:53 AM)
Average temperature yesterday: 69 °F

Past Weeks' High & Low Weather Summary

 TemperatureHumidityPressure
High90 °F (Jul 21, 2:53 PM)97% (Jul 21, 2:53 AM)30.32 "Hg (Jul 21, 2:53 AM)
Low53 °F (Jul 24, 4:53 AM)26% (Aug 1, 5:53 PM)29.61 "Hg (Jul 20, 12:53 PM)
Average68 °F72%29.95 "Hg
* Reported Jul 17 6:53 PM — Aug 1 6:53 PM, Rainy River, Weather by CustomWeather, © 2014

Note: Actual official high and low records may vary slightly from our data, if they occured in-between our weather recording intervals... More about our weather records

Advertising

Rainy River weather history for previous 24 hours

 ConditionsComfort  
Time TempWeatherWind HumidityBarometerVisibility
6:53 PM
Aug 1
74 °FSunny.3 mph46%30.09 "Hg10 mi
5:53 PM77 °FSunny.6 mph26%30.08 "Hg10 mi
4:53 PM78 °FSunny.5 mph36%30.08 "Hg10 mi
3:53 PM79 °FSunny.8 mph30%30.08 "Hg10 mi
2:53 PM79 °FSunny.8 mph39%30.09 "Hg10 mi
1:53 PM77 °FSunny.7 mph44%30.09 "Hg10 mi
12:53 PM78 °FSunny.10 mph37%30.08 "Hg10 mi
11:53 AM77 °FSunny.10 mph44%30.08 "Hg10 mi
10:53 AM74 °FSunny.6 mph71%30.08 "Hg10 mi
9:53 AM71 °FSunny.3 mph76%30.07 "Hg10 mi
8:53 AM64 °FSunny.No wind87%30.06 "Hg10 mi
7:53 AM60 °FSunny.No wind93%30.06 "Hg10 mi
6:53 AM54 °FSunny.3 mph93%30.05 "Hg10 mi
5:53 AM54 °FFog.No wind97%30.04 "Hg5 mi
4:53 AM55 °FClear.No wind96%30.03 "Hg8 mi
3:53 AM58 °FClear.No wind93%30.03 "Hg9 mi
2:53 AM58 °FClear.No wind93%30.01 "Hg10 mi
1:53 AM58 °FClear.3 mph97%30.01 "Hg10 mi
12:53 AM59 °FClear.No wind93%30.02 "Hg8 mi
11:53 PM
Jul 31
59 °FClear.No wind93%30.01 "Hg10 mi
10:53 PM61 °FClear.No wind93%30.00 "Hg9 mi
9:53 PM65 °FSunny.No wind81%29.99 "Hg10 mi
8:53 PM68 °FSunny.No wind70%30.00 "Hg10 mi
Weather by CustomWeather, © 2014

See weather overviewHow to use our weather pages